Wind_Speed
82 86 86 84 87 88 87 83 84 81 70 70 73 79 70 63 67 60 58 52 52 50 49 44 47 48 49 48 44 37 38 37 38 35 38 39 41 45 53 53 49 48 47 37
87 90 90 94 93 87 86 87 89 83 78 69 71 79 73 67 67 58 56 53 56 55 51 44 45 46 47 47 42 38 36 38 44 39 38 38 39 43 46 51 52 50 47 40
89 87 91 94 93 88 89 93 85 74 67 65 74 79 71 67 72 66 58 55 55 55 50 47 44 44 44 47 44 37 39 40 45 44 43 39 41 46 50 57 56 53 49 44
86 84 85 88 88 82 91 80 68 58 59 65 66 77 72 64 70 72 61 57 48 53 51 50 44 43 44 44 48 40 46 44 44 45 43 41 43 43 46 52 56 55 53 47
82 77 73 72 75 75 89 72 70 62 62 52 70 66 67 68 65 64 68 60 57 54 50 51 49 48 50 49 50 47 46 45 45 44 44 44 45 44 45 50 57 57 56 52
62 51 48 44 52 52 58 70 73 76 66 69 50 48 55 66 62 51 52 56 58 56 50 50 56 56 53 53 52 52 48 46 47 47 46 47 46 47 47 50 57 60 60 60
42 35 40 44 35 32 42 50 68 69 86 73 54 53 48 61 61 56 48 50 48 58 47 50 52 51 49 47 51 52 52 50 47 48 49 48 47 47 48 53 56 56 62 64
27 34 31 38 13 23 36 42 56 66 62 48 57 55 61 46 56 55 51 42 50 45 44 46 46 50 50 44 50 55 53 48 47 47 48 49 49 50 51 54 55 58 55 63
28 28 28 29 41 25 18 31 35 60 57 27 46 51 57 58 48 40 48 37 44 45 45 43 44 44 48 48 49 47 49 50 50 49 48 49 50 50 47 47 47 54 46 39
25 30 26 25 15 11 8 9 30 52 53 53 39 42 36 41 39 27 47 44 40 40 48 53 52 49 45 42 40 42 48 48 49 51 48 49 52 52 46 44 44 46 40 35
9 12 16 19 4 5 4 3 24 30 47 45 52 25 36 58 41 40 26 30 40 44 44 50 55 61 61 52 49 43 43 42 51 51 52 56 55 54 52 53 54 49 46 46
6 16 12 7 8 11 6 12 13 26 40 15 40 45 16 35 47 43 55 34 32 40 45 37 49 56 55 53 51 48 47 46 45 46 48 51 52 56 57 58 54 52 49 49
11 7 2 5 7 14 13 5 14 16 37 50 33 37 55 44 34 34 32 43 49 32 50 48 46 52 55 51 49 50 47 46 43 46 48 48 51 54 55 57 55 55 55 54
5 3 10 6 3 3 16 17 8 6 18 22 28 12 32 33 44 45 37 37 45 36 47 51 59 55 57 52 50 54 51 50 46 49 50 53 53 57 59 60 61 59 56 56
5 7 7 5 12 10 8 2 17 13 7 8 19 16 13 19 13 35 43 52 50 54 53 49 44 56 63 63 64 56 53 53 52 54 55 58 59 60 63 63 63 61 62 61
10 6 6 6 4 3 5 1 4 14 13 8 4 12 11 19 10 17 31 26 39 42 34 39 45 48 47 52 56 71 70 60 77 58 60 66 61 61 65 65 65 61 62 59
10 12 9 7 6 4 3 4 12 11 4 12 2 2 8 8 8 14 10 21 28 34 33 33 30 35 57 59 62 69 52 61 74 63 71 78 79 69 68 65 67 68 66 63
8 10 11 14 15 3 2 4 4 9 11 9 7 11 9 12 14 18 15 19 25 26 29 32 28 28 36 42 44 44 58 82 65 65 77 72 68 72 69 69 71 71 72 73
12 13 11 2 10 15 11 5 8 8 10 11 13 18 15 11 12 15 20 23 23 25 31 34 36 35 34 32 35 36 37 35 42 48 64 68 73 64 66 70 69 72 77 82
6 5 9 2 9 15 10 17 14 9 12 11 12 15 16 17 18 19 20 23 27 30 32 31 33 36 40 35 39 41 46 44 43 42 43 51 56 60 71 78 83 82 73 71
8 6 9 10 3 13 11 5 19 13 11 17 13 16 15 18 15 16 20 23 25 25 26 30 32 33 36 35 35 38 44 48 50 52 51 54 56 59 55 56 61 58 58 62
10 6 8 7 7 5 5 1 10 6 7 17 20 16 16 19 19 19 21 22 25 27 29 31 33 35 38 41 42 44 46 50 53 52 54 59 62 63 65 64 66 65 60 57
10 9 13 8 6 5 7 4 4 7 5 14 15 14 17 19 21 23 26 29 30 33 36 38 40 42 45 46 48 48 51 52 55 55 55 54 56 64 70 71 70 74 72 65
7 7 15 12 12 4 5 7 9 10 13 15 15 15 13 17 20 21 24 29 33 36 41 46 47 46 46 46 49 53 54 58 61 62 62 61 60 61 63 65 72 78 78 79
9 9 14 17 15 12 14 15 14 15 15 16 17 18 19 21 24 29 34 37 38 40 41 39 38 41 43 46 47 50 52 54 56 59 64 68 71 71 70 69 71 74 74 79
13 12 13 13 16 19 22 24 22 24 24 25 25 26 28 31 32 33 33 30 29 31 33 34 36 35 35 34 36 38 41 45 50 53 57 61 65 71 76 77 78 79 82 82
Wind_Direction
272 270 270 272 270 270 269 267 266 268 266 263 258 262 259 258 260 261 259 250 245 244 244 238 237 235 240 239 236 233 231 225 225 228 231 231 231 230 226 223 221 225 233 232
272 272 272 270 269 266 264 264 264 265 263 259 259 255 257 253 258 257 264 256 247 244 244 239 233 235 237 234 233 228 230 229 226 231 236 234 233 231 228 225 222 225 227 228
271 273 268 266 263 262 260 261 264 258 264 258 261 258 258 256 251 255 255 255 254 250 241 237 234 234 236 232 235 228 230 232 227 229 230 229 228 227 223 223 222 221 223 227
274 271 266 264 262 260 257 256 252 263 254 263 256 259 256 259 254 249 246 245 250 253 242 239 234 234 237 233 236 228 224 227 224 226 227 228 228 232 229 224 224 223 229 233
275 273 270 270 268 259 258 250 240 240 240 245 245 249 260 256 258 248 245 246 252 252 244 234 236 235 232 235 233 229 220 222 222 224 222 226 228 229 228 226 226 224 226 231
273 271 265 274 279 271 263 249 236 237 239 239 235 249 247 251 255 255 245 248 246 246 243 234 234 237 233 234 230 233 221 219 222 223 222 223 227 228 225 227 226 226 225 227
264 258 271 257 297 278 262 253 234 237 235 243 237 235 256 247 243 250 253 246 244 239 232 230 233 238 240 237 238 236 230 222 224 223 227 224 225 230 228 227 225 228 231 230
269 244 265 256 315 324 272 251 240 232 243 238 246 247 251 254 260 262 254 246 239 227 222 226 229 232 235 233 233 233 235 231 229 225 227 230 228 230 231 231 231 231 229 233
280 242 290 245 248 309 354 254 252 231 233 245 244 249 250 244 254 253 253 239 236 233 235 233 231 232 232 231 230 232 232 234 229 229 224 228 231 232 238 239 240 247 235 246
278 272 269 277 312 292 336 245 248 230 227 229 233 231 246 232 231 249 247 237 244 247 242 238 236 234 228 227 227 225 224 223 225 228 226 229 230 233 234 236 238 242 250 249
301 305 281 302 253 49 91 4 207 227 228 240 237 252 235 235 241 258 236 236 240 239 229 232 237 237 235 234 230 225 219 222 223 221 222 226 227 230 233 236 237 237 240 241
340 330 287 312 300 287 76 65 117 213 224 231 238 234 227 242 248 248 245 235 223 245 239 223 229 229 229 225 223 225 225 228 229 225 228 230 230 231 234 237 239 240 240 241
306 339 281 290 238 213 250 340 73 150 217 226 229 231 231 240 237 220 214 242 248 227 235 232 228 225 223 222 220 220 217 216 220 225 224 227 236 240 240 239 241 240 242 243
278 295 80 42 107 188 226 256 112 124 143 204 214 201 235 211 219 217 210 241 217 250 245 203 211 218 215 214 220 220 222 225 233 230 232 231 233 239 242 242 242 240 241 243
342 237 104 130 110 107 99 133 268 296 123 118 149 183 166 175 168 203 225 230 218 222 228 214 205 211 206 218 219 221 225 234 242 238 238 236 235 239 243 244 245 243 242 243
313 15 182 165 99 260 247 131 101 231 249 222 192 142 132 164 192 193 208 205 210 208 213 217 216 220 230 229 215 211 217 219 237 229 245 242 237 239 239 241 244 243 246 246
339 322 293 298 337 357 33 134 137 133 203 238 283 181 179 289 259 258 264 237 218 217 218 220 207 207 212 223 233 233 233 231 219 237 233 237 230 235 239 244 243 248 249 251
354 338 312 286 274 276 166 134 104 143 156 185 214 207 229 221 236 239 238 270 270 260 245 236 243 233 217 218 222 233 232 236 235 222 231 228 234 229 235 243 250 253 255 257
322 322 325 327 190 185 186 276 257 184 220 198 188 191 210 218 239 249 258 273 285 292 289 281 274 279 285 261 260 258 252 249 237 226 232 234 229 231 240 242 249 246 255 253
332 357 30 86 191 172 175 205 172 226 203 221 238 241 243 239 235 250 258 266 271 275 281 284 283 283 282 281 278 279 279 273 265 256 246 237 238 236 237 240 242 247 241 242
44 29 18 15 184 239 179 203 216 197 212 218 211 234 232 233 234 243 252 267 276 278 277 280 280 279 277 275 272 270 271 271 270 266 264 256 246 246 242 237 239 241 242 241
41 61 21 14 33 79 20 117 197 184 204 215 224 217 238 250 273 277 280 282 282 284 284 282 278 277 277 276 274 273 270 269 267 263 260 255 257 257 255 250 243 243 243 244
28 34 39 48 27 360 39 118 208 265 276 216 247 265 265 273 288 294 295 294 294 294 294 296 296 294 289 283 279 276 273 271 269 267 265 260 253 251 251 252 253 253 252 247
360 354 350 355 12 336 305 297 280 259 264 262 278 285 290 286 288 292 297 301 298 297 300 304 304 302 298 293 287 281 277 275 273 272 270 267 261 258 254 251 250 250 251 253
328 317 313 317 318 324 317 280 280 256 259 265 265 269 274 285 290 295 301 305 305 306 306 303 299 298 296 292 289 284 281 276 271 269 269 268 267 264 260 256 255 254 251 248
322 331 323 319 312 311 308 300 293 287 280 279 274 282 283 291 298 301 301 298 297 303 306 306 305 304 302 301 296 290 284 280 277 274 271 269 266 264 263 260 257 254 254 253
Height
5643 5631 5635 5642 5635 5627 5628 5627 5627 5636 5649 5646 5648 5637 5657 5672 5664 5674 5680 5682 5685 5690 5691 5700 5704 5709 5712 5713 5714 5722 5723 5729 5731 5734 5736 5739 5744 5750 5755 5763 5771 5775 5778 5782
5621 5613 5619 5611 5611 5605 5604 5605 5605 5614 5626 5628 5629 5625 5639 5651 5654 5661 5662 5672 5671 5675 5680 5686 5692 5698 5701 5704 5706 5711 5714 5720 5723 5726 5730 5733 5738 5742 5749 5756 5760 5767 5771 5776
5585 5599 5587 5581 5581 5582 5582 5581 5590 5596 5609 5610 5611 5604 5616 5629 5637 5642 5650 5655 5659 5662 5669 5673 5681 5685 5690 5694 5697 5702 5705 5711 5714 5718 5721 5724 5727 5729 5732 5739 5750 5757 5762 5768
5561 5567 5559 5554 5550 5560 5546 5569 5575 5583 5588 5582 5599 5586 5603 5611 5614 5621 5635 5638 5646 5648 5656 5661 5668 5673 5678 5683 5687 5693 5695 5699 5704 5708 5712 5715 5720 5724 5729 5735 5744 5750 5755 5761
5541 5533 5534 5529 5530 5533 5521 5547 5556 5563 5561 5561 5573 5568 5575 5590 5593 5605 5616 5621 5628 5635 5640 5648 5654 5658 5662 5671 5676 5684 5685 5688 5694 5698 5703 5706 5711 5717 5721 5726 5734 5740 5745 5750
5515 5518 5517 5516 5509 5510 5516 5517 5526 5539 5544 5539 5556 5556 5569 5569 5576 5585 5595 5602 5610 5621 5628 5635 5639 5644 5650 5659 5665 5670 5676 5678 5683 5688 5692 5698 5702 5707 5713 5717 5721 5726 5732 5737
5506 5508 5507 5507 5502 5499 5497 5499 5503 5518 5523 5528 5547 5550 5559 5558 5563 5569 5582 5592 5600 5608 5615 5623 5628 5635 5641 5650 5657 5661 5668 5668 5673 5678 5684 5690 5695 5699 5704 5705 5709 5714 5719 5726
5491 5499 5498 5501 5498 5493 5486 5488 5491 5504 5515 5523 5532 5535 5544 5547 5552 5559 5569 5578 5588 5595 5605 5612 5617 5623 5630 5639 5647 5653 5657 5664 5666 5670 5675 5681 5686 5689 5694 5697 5698 5702 5707 5714
5486 5488 5491 5494 5492 5491 5484 5481 5490 5495 5506 5512 5520 5530 5533 5540 5544 5553 5558 5566 5575 5584 5592 5601 5608 5615 5621 5627 5634 5641 5647 5651 5657 5661 5666 5671 5675 5679 5685 5688 5693 5680 5682 5702
5485 5483 5486 5487 5491 5489 5484 5480 5479 5481 5492 5502 5509 5520 5524 5533 5539 5544 5550 5558 5564 5570 5577 5586 5595 5603 5610 5616 5622 5629 5635 5638 5644 5650 5656 5660 5665 5669 5675 5679 5682 5685 5688 5694
5482 5481 5483 5482 5485 5481 5480 5475 5475 5480 5491 5497 5505 5513 5517 5519 5527 5535 5542 5550 5555 5560 5564 5571 5579 5588 5598 5605 5611 5618 5625 5627 5632 5637 5643 5648 5654 5659 5663 5667 5672 5678 5682 5686
5480 5477 5477 5479 5481 5478 5478 5475 5471 5476 5482 5491 5496 5506 5508 5511 5519 5524 5534 5539 5546 5548 5554 5559 5568 5574 5584 5592 5599 5606 5613 5618 5624 5628 5632 5638 5642 5648 5652 5655 5662 5667 5671 5674
5478 5475 5475 5476 5479 5478 5476 5476 5473 5473 5479 5484 5492 5500 5502 5510 5517 5522 5527 5533 5540 5543 5543 5546 5556 5563 5572 5580 5587 5592 5598 5606 5612 5617 5621 5627 5631 5635 5640 5644 5649 5655 5659 5663
5478 5477 5474 5475 5476 5476 5478 5478 5478 5479 5479 5485 5492 5496 5498 5504 5512 5516 5517 5523 5527 5531 5537 5531 5542 5549 5558 5566 5575 5582 5586 5592 5599 5605 5609 5614 5619 5623 5626 5630 5636 5642 5647 5651
5477 5477 5477 5478 5475 5476 5480 5481 5481 5480 5482 5485 5490 5495 5500 5503 5505 5509 5510 5519 5516 5519 5524 5526 5523 5532 5535 5548 5555 5565 5573 5580 5584 5591 5596 5600 5604 5610 5613 5616 5620 5627 5634 5640
5477 5476 5478 5478 5477 5480 5481 5481 5485 5486 5485 5487 5489 5495 5500 5504 5505 5503 5503 5505 5507 5509 5514 5519 5517 5518 5522 5530 5537 5544 5551 5560 5562 5570 5576 5580 5586 5591 5597 5601 5606 5611 5615 5624
5477 5478 5478 5478 5479 5479 5481 5481 5482 5485 5486 5489 5492 5495 5498 5498 5502 5502 5501 5498 5498 5504 5506 5508 5511 5515 5521 5524 5527 5536 5533 5542 5544 5554 5561 5567 5566 5576 5580 5584 5590 5594 5598 5605
5478 5478 5478 5479 5480 5483 5483 5481 5483 5484 5486 5488 5489 5490 5492 5493 5495 5495 5494 5492 5494 5498 5500 5504 5505 5504 5507 5511 5515 5517 5521 5528 5530 5533 5544 5546 5553 5555 5561 5567 5573 5578 5581 5585
5478 5478 5477 5476 5476 5480 5481 5479 5482 5484 5486 5485 5486 5488 5488 5488 5490 5491 5491 5491 5492 5493 5494 5496 5497 5499 5502 5501 5504 5506 5511 5514 5518 5521 5527 5532 5537 5542 5547 5552 5557 5562 5567 5569
5477 5477 5476 5476 5474 5474 5475 5478 5479 5482 5484 5483 5483 5485 5486 5487 5489 5490 5488 5489 5489 5489 5491 5491 5491 5490 5493 5496 5499 5501 5503 5504 5508 5510 5514 5520 5524 5526 5531 5538 5543 5546 5551 5554
5477 5478 5477 5477 5477 5475 5476 5477 5477 5480 5482 5479 5481 5482 5484 5485 5486 5485 5485 5486 5486 5487 5487 5484 5484 5485 5486 5487 5489 5491 5492 5495 5498 5503 5507 5509 5511 5514 5517 5520 5526 5529 5534 5539
5481 5479 5479 5478 5477 5478 5476 5476 5477 5477 5477 5479 5479 5478 5480 5479 5479 5481 5482 5481 5481 5480 5478 5477 5477 5477 5476 5473 5474 5476 5477 5480 5484 5488 5491 5496 5498 5500 5502 5506 5510 5516 5518 5522
5483 5482 5480 5480 5478 5477 5475 5475 5476 5474 5475 5475 5475 5475 5475 5475 5476 5476 5476 5475 5473 5470 5469 5467 5466 5465 5461 5460 5459 5458 5459 5460 5465 5468 5470 5473 5476 5481 5484 5489 5493 5497 5500 5507
5486 5484 5482 5482 5480 5478 5477 5475 5473 5473 5472 5472 5471 5471 5471 5472 5473 5472 5471 5469 5466 5463 5460 5456 5452 5448 5446 5443 5441 5440 5441 5443 5443 5445 5446 5448 5452 5455 5459 5462 5468 5475 5480 5486
5486 5484 5481 5479 5478 5477 5475 5473 5471 5470 5468 5467 5467 5467 5467 5467 5466 5464 5462 5460 5456 5453 5450 5446 5442 5438 5433 5430 5425 5421 5420 5421 5423 5423 5422 5423 5425 5428 5431 5434 5437 5443 5451 5458
5482 5481 5479 5477 5474 5472 5469 5466 5464 5463 5463 5463 5462 5462 5461 5460 5458 5455 5453 5450 5448 5444 5441 5436 5431 5427 5423 5418 5414 5409 5406 5403 5401 5401 5400 5400 5400 5400 5400 5402 5408 5412 5418 5422